When you browse on this site, cookies collect data to enhance your experience and personalize the content and advertising you see.
Visit our Privacy Policy to learn more. By continuing to use the site, you agree to this use of cookies and data.

Meteo orario Shuvayka

Oggi, 7 Luglio, Martedi

Tempo Temperatura Precipitazioni Vento Pressione Umidità
00:00 +20°C° 0 mm 1 m/s 738 mm Hg 84%
01:00 +20°C° 0 mm 1 m/s 738 mm Hg 85%
02:00 +20°C° 0 mm 1 m/s 738 mm Hg 87%
03:00 +19°C° 0 mm 2 m/s 737 mm Hg 90%
04:00 +19°C° 0 mm 2 m/s 737 mm Hg 90%
05:00 +20°C° 0 mm 2 m/s 737 mm Hg 91%
06:00 +20°C° 0 mm 2 m/s 737 mm Hg 91%
07:00 +23°C° 0 mm 2 m/s 737 mm Hg 88%
08:00 +24°C° 0 mm 3 m/s 737 mm Hg 86%
09:00 +26°C° 0 mm 3 m/s 737 mm Hg 83%
10:00 +28°C° 1.1 mm 3 m/s 737 mm Hg 76%
11:00 +29°C° 1.1 mm 3 m/s 737 mm Hg 68%
12:00 +31°C° 1.1 mm 3 m/s 736 mm Hg 61%
13:00 +32°C° 0.1 mm 4 m/s 736 mm Hg 62%
14:00 +32°C° 0.1 mm 4 m/s 736 mm Hg 63%
15:00 +32°C° 0.1 mm 4 m/s 736 mm Hg 64%
16:00 +30°C° 0.3 mm 4 m/s 735 mm Hg 69%
17:00 +30°C° 0.3 mm 4 m/s 735 mm Hg 74%
18:00 +29°C° 0.3 mm 4 m/s 734 mm Hg 79%
19:00 +28°C° 0.2 mm 4 m/s 734 mm Hg 81%
20:00 +27°C° 0.2 mm 4 m/s 734 mm Hg 83%
21:00 +26°C° 0.2 mm 4 m/s 734 mm Hg 85%
22:00 +25°C° 0 mm 4 m/s 734 mm Hg 83%
23:00 +23°C° 0 mm 4 m/s 733 mm Hg 82%

Domani, 8 Luglio, Mercoledi

Tempo Temperatura Precipitazioni Vento Pressione Umidità
00:00 +22°C° 0 mm 3 m/s 733 mm Hg 80%
01:00 +22°C° 0 mm 3 m/s 733 mm Hg 80%
02:00 +21°C° 0 mm 3 m/s 733 mm Hg 79%
03:00 +20°C° 0 mm 2 m/s 733 mm Hg 79%
04:00 +20°C° 0 mm 2 m/s 733 mm Hg 79%
05:00 +21°C° 0 mm 3 m/s 732 mm Hg 80%
06:00 +21°C° 0 mm 3 m/s 732 mm Hg 80%
07:00 +22°C° 0 mm 3 m/s 732 mm Hg 79%
08:00 +24°C° 0 mm 3 m/s 732 mm Hg 77%
09:00 +25°C° 0 mm 4 m/s 732 mm Hg 76%
10:00 +26°C° 0 mm 4 m/s 733 mm Hg 74%
11:00 +26°C° 0 mm 4 m/s 733 mm Hg 73%
12:00 +27°C° 0 mm 4 m/s 733 mm Hg 72%
13:00 +27°C° 0.1 mm 4 m/s 734 mm Hg 75%
14:00 +26°C° 0.1 mm 3 m/s 734 mm Hg 78%
15:00 +26°C° 0.1 mm 3 m/s 734 mm Hg 82%
16:00 +24°C° 3.1 mm 3 m/s 734 mm Hg 86%
17:00 +21°C° 3.1 mm 4 m/s 734 mm Hg 91%
18:00 +20°C° 3.1 mm 4 m/s 735 mm Hg 95%
19:00 +19°C° 1.9 mm 4 m/s 735 mm Hg 96%
20:00 +19°C° 1.9 mm 4 m/s 735 mm Hg 96%
21:00 +18°C° 1.9 mm 4 m/s 736 mm Hg 96%
22:00 +17°C° 0.7 mm 4 m/s 736 mm Hg 95%
23:00 +17°C° 0.7 mm 4 m/s 736 mm Hg 95%

Dopodomani, 9 Luglio, Giovedi

Tempo Temperatura Precipitazioni Vento Pressione Umidità
00:00 +15°C° 0.7 mm 4 m/s 736 mm Hg 94%
01:00 +15°C° 0.1 mm 4 m/s 737 mm Hg 94%
02:00 +14°C° 0.1 mm 5 m/s 737 mm Hg 94%
03:00 +14°C° 0.1 mm 5 m/s 737 mm Hg 94%
04:00 +14°C° 0 mm 5 m/s 737 mm Hg 93%
05:00 +14°C° 0 mm 5 m/s 737 mm Hg 93%
06:00 +13°C° 0 mm 5 m/s 737 mm Hg 92%
07:00 +14°C° 0 mm 5 m/s 737 mm Hg 89%
08:00 +15°C° 0 mm 5 m/s 738 mm Hg 86%
09:00 +15°C° 0 mm 5 m/s 738 mm Hg 83%
10:00 +17°C° 0 mm 5 m/s 738 mm Hg 78%
11:00 +19°C° 0 mm 5 m/s 739 mm Hg 74%
12:00 +20°C° 0 mm 5 m/s 739 mm Hg 69%
13:00 +21°C° 0.1 mm 4 m/s 739 mm Hg 68%
14:00 +21°C° 0.1 mm 4 m/s 739 mm Hg 67%
15:00 +22°C° 0.1 mm 4 m/s 739 mm Hg 66%
16:00 +21°C° 0.1 mm 4 m/s 740 mm Hg 68%
17:00 +21°C° 0.1 mm 4 m/s 740 mm Hg 70%
18:00 +21°C° 0.1 mm 4 m/s 740 mm Hg 72%
19:00 +19°C° 0 mm 4 m/s 740 mm Hg 76%
20:00 +17°C° 0 mm 3 m/s 741 mm Hg 80%
21:00 +16°C° 0 mm 3 m/s 741 mm Hg 84%
22:00 +14°C° 0 mm 3 m/s 741 mm Hg 86%
23:00 +13°C° 0 mm 3 m/s 742 mm Hg 88%

10 Luglio, Venerdi

Tempo Temperatura Precipitazioni Vento Pressione Umidità
00:00 +13°C° 0 mm 3 m/s 742 mm Hg 90%
01:00 +12°C° 0 mm 3 m/s 742 mm Hg 91%
02:00 +12°C° 0 mm 3 m/s 742 mm Hg 91%
03:00 +12°C° 0 mm 3 m/s 743 mm Hg 92%
04:00 +12°C° 0 mm 3 m/s 743 mm Hg 91%
05:00 +12°C° 0 mm 3 m/s 743 mm Hg 90%
06:00 +14°C° 0 mm 2 m/s 744 mm Hg 89%
07:00 +14°C° 0 mm 3 m/s 744 mm Hg 84%
08:00 +17°C° 0 mm 3 m/s 744 mm Hg 79%
09:00 +18°C° 0 mm 3 m/s 745 mm Hg 74%
10:00 +19°C° 0 mm 3 m/s 745 mm Hg 70%
11:00 +20°C° 0 mm 3 m/s 745 mm Hg 66%
12:00 +21°C° 0 mm 3 m/s 745 mm Hg 61%
13:00 +21°C° 0 mm 3 m/s 745 mm Hg 60%
14:00 +22°C° 0 mm 3 m/s 745 mm Hg 58%
15:00 +22°C° 0 mm 3 m/s 745 mm Hg 57%
16:00 +23°C° 0 mm 2 m/s 745 mm Hg 60%
17:00 +23°C° 0 mm 2 m/s 745 mm Hg 63%
18:00 +21°C° 0 mm 2 m/s 745 mm Hg 66%
19:00 +20°C° 0 mm 2 m/s 746 mm Hg 70%
20:00 +19°C° 0 mm 1 m/s 746 mm Hg 74%
21:00 +16°C° 0 mm 1 m/s 746 mm Hg 77%
22:00 +16°C° 0 mm 1 m/s 746 mm Hg 77%
23:00 +15°C° 0 mm 1 m/s 746 mm Hg 77%

11 Luglio, Sabato

Tempo Temperatura Precipitazioni Vento Pressione Umidità
00:00 +14°C° 0 mm 1 m/s 747 mm Hg 77%
01:00 +14°C° 0 mm 1 m/s 747 mm Hg 79%
02:00 +14°C° 0 mm 2 m/s 747 mm Hg 80%
03:00 +13°C° 0 mm 2 m/s 747 mm Hg 81%
04:00 +14°C° 0 mm 2 m/s 747 mm Hg 82%
05:00 +14°C° 0 mm 2 m/s 747 mm Hg 83%
06:00 +15°C° 0 mm 2 m/s 747 mm Hg 84%
07:00 +17°C° 0 mm 2 m/s 747 mm Hg 80%
08:00 +18°C° 0 mm 2 m/s 747 mm Hg 77%
09:00 +20°C° 0 mm 3 m/s 747 mm Hg 73%
10:00 +21°C° 0 mm 3 m/s 747 mm Hg 70%
11:00 +22°C° 0 mm 4 m/s 747 mm Hg 67%
12:00 +23°C° 0 mm 4 m/s 747 mm Hg 64%
13:00 +23°C° 0 mm 4 m/s 746 mm Hg 63%
14:00 +23°C° 0 mm 4 m/s 746 mm Hg 63%
15:00 +25°C° 0 mm 4 m/s 746 mm Hg 63%
16:00 +23°C° 0 mm 4 m/s 746 mm Hg 66%
17:00 +24°C° 0 mm 3 m/s 745 mm Hg 69%
18:00 +24°C° 0 mm 3 m/s 745 mm Hg 72%
19:00 +21°C° 0 mm 3 m/s 745 mm Hg 75%
20:00 +20°C° 0 mm 3 m/s 745 mm Hg 78%
21:00 +18°C° 0 mm 3 m/s 745 mm Hg 81%
22:00 +18°C° 0 mm 3 m/s 745 mm Hg 82%
23:00 +17°C° 0 mm 3 m/s 745 mm Hg 82%

12 Luglio, Domenica

Tempo Temperatura Precipitazioni Vento Pressione Umidità
00:00 +17°C° 0 mm 3 m/s 745 mm Hg 83%
01:00 +17°C° 0 mm 3 m/s 744 mm Hg 84%
02:00 +16°C° 0 mm 3 m/s 744 mm Hg 85%
03:00 +16°C° 0 mm 3 m/s 744 mm Hg 85%
04:00 +16°C° 0 mm 3 m/s 744 mm Hg 85%
05:00 +17°C° 0 mm 2 m/s 744 mm Hg 86%
06:00 +17°C° 0 mm 2 m/s 744 mm Hg 86%
07:00 +18°C° 0 mm 2 m/s 744 mm Hg 83%
08:00 +20°C° 0 mm 2 m/s 744 mm Hg 80%
09:00 +21°C° 0 mm 2 m/s 744 mm Hg 77%
10:00 +23°C° 0 mm 1 m/s 744 mm Hg 75%
11:00 +24°C° 0 mm 1 m/s 744 mm Hg 74%
12:00 +25°C° 0 mm 1 m/s 744 mm Hg 72%
13:00 +25°C° 1.1 mm 1 m/s 744 mm Hg 73%
14:00 +25°C° 1.1 mm 1 m/s 744 mm Hg 74%
15:00 +25°C° 1.1 mm 1 m/s 743 mm Hg 75%
16:00 +25°C° 1.5 mm 1 m/s 743 mm Hg 76%
17:00 +25°C° 1.5 mm 1 m/s 743 mm Hg 77%
18:00 +24°C° 1.5 mm 1 m/s 742 mm Hg 79%
19:00 +23°C° 0.6 mm 1 m/s 742 mm Hg 82%
20:00 +22°C° 0.6 mm 1 m/s 742 mm Hg 86%
21:00 +21°C° 0.6 mm 1 m/s 742 mm Hg 89%
22:00 +20°C° 0.2 mm 1 m/s 742 mm Hg 90%
23:00 +20°C° 0.2 mm 1 m/s 742 mm Hg 91%
Mostrare altro